Simultaneous Nadir Overpasses (SNOs) Predictions

Prediction of SNOs between AQUA and GOES-15 Satellite Orbit:

Table of predicted SNOs for the next 14.0 days since TLE Epoch: 9/12/2025
Index Date Time (AQUA) AQUA Lat,Lon GOES-15 Lat,Lon Distance(km) Time Diff (sec)
1 09/12/2025 22:31:48 -1.28, 65.12 -0.48, 61.38 425.97 80
2 09/13/2025 10:51:01 0.25, 60.48 0.44, 61.36 99.94 80
3 09/15/2025 10:30:24 1.38, 65.53 0.47, 61.36 474.70 80
4 09/15/2025 22:49:27 -0.32, 60.94 -0.44, 61.37 49.53 80
5 09/18/2025 10:48:01 0.41, 61.35 0.43, 61.36 3.08 80
6 09/20/2025 22:46:27 -0.54, 61.79 -0.42, 61.36 49.76 80
7 09/21/2025 11:05:39 -0.52, 57.16 0.38, 61.37 478.47 80
8 09/23/2025 10:45:00 0.58, 62.22 0.41, 61.37 96.75 80
9 09/23/2025 23:04:03 0.46, 57.62 -0.36, 61.35 424.64 80
10 09/25/2025 22:43:24 -0.66, 62.68 -0.39, 61.36 149.18 80
11 09/26/2025 11:02:36 -0.38, 58.05 0.34, 61.39 379.92 80
